User: anonymous   Login
Location: Unspecified
(0.0000°N, 0.0000°E)
Time: 20:47:52
(UTC+00:00)
Language:

FENGYUN 3A - Orbit

View from above orbital plane
View from above orbital plane
View from above satellite
View from above satellite

Ground track
Ground track

The orbit is defined by the following mean orbital elements,

1 32958U          26150.42640794 +.00000000 +00000-0 +63953-4 0 00000
2 32958  98.6880  91.5925 0008739 171.8730 188.2589 14.19566998    02
Epoch (UTC): 30 May 2026 10:14:01
Eccentricity: 0.0008739
inclination: 98.6880°
perigee height: 821 km
apogee height: 833 km
right ascension of ascending node: 91.5925°
argument of perigee: 171.8730°
revolutions per day: 14.19566998
mean anomaly at epoch: 188.2589°

The dashed part of the orbit path shows where the satellite is in the earth's shadow,  

DLR